Regional Weather Roundup
Issued by NWS

Home | Current Version | Previous Version | Text Only | Print | Product List | Glossary On
Versions: 1 2 3 4 5 6 7 8 9 10 11 12 13 14 15 16 17 18 19 20 21 22 23 24 25 26 27 28 29 30 31 32 33 34 35 36 37 38 39 40 41 42 43 44 45 46 47 48 49 50
000
ASUS46 KPQR 011610
RWROR

OREGON REGIONAL WEATHER ROUNDUP
NATIONAL WEATHER SERVICE PORTLAND OR
900 AM PDT FRI AUG 01 2014

NOTE: "FAIR" INDICATES FEW OR NO CLOUDS BELOW 12,000 FEET WITH
NO SIGNIFICANT WEATHER AND/OR OBSTRUCTIONS TO VISIBILITY.

ORZ001>013-011700-
NORTHWEST OREGON


CITY           SKY/WX    TMP DP  RH WIND       PRES   REMARKS
ASTORIA        PTSUNNY   63  57  81 CALM      30.06R
NEWPORT        PTSUNNY   59  55  88 N9        30.07F
PORTLAND       CLOUDY    67  54  63 NW6       30.00F
VANCOUVER WA   CLOUDY    67  52  58 N5        30.01S
SCAPPOOSE      CLOUDY    68  56  65 N8        29.99F
HILLSBORO      CLOUDY    68  57  68 NW8       29.99F
AURORA         CLOUDY    68  55  63 E6        30.00S
MCMINNVILLE    PTSUNNY   70  56  61 W8        29.99F
SALEM          MOSUNNY   70  58  65 S3        30.00S
CORVALLIS        N/A     66  55  68 NW7       30.02S
EUGENE         MOSUNNY   70  62  76 N6        30.01S
$$

ORZ021-028-011700-
SOUTHWEST OREGON


CITY           SKY/WX    TMP DP  RH WIND       PRES   REMARKS
NORTH BEND     CLOUDY    59  59 100 N10       30.06F
BROOKINGS      FOG       56  56 100 CALM      29.99S VSB<1/4
ROSEBURG       SUNNY     71  57  61 CALM      30.01S
SEXTON SUMMIT  SUNNY     68  53  58 CALM      30.10S
MEDFORD        SUNNY     73  55  53 CALM      30.00S
$$

ORZ009-041-011700-
COLUMBIA GORGE


CITY           SKY/WX    TMP DP  RH WIND       PRES   REMARKS
TROUTDALE      CLOUDY    67  59  75 VRB3      29.97F
THE DALLES     PTSUNNY   81  58  45 NW7       29.94S
$$

ORZ029>031-042>050-061>064-011700-
EASTERN OREGON


CITY           SKY/WX    TMP DP  RH WIND       PRES   REMARKS
REDMOND        MOSUNNY   74  51  44 SW6       30.11S
BEND             N/A    N/A N/A N/A MISG        N/A
KLAMATH FALLS  SUNNY     72  50  45 CALM      30.14R
LAKEVIEW       SUNNY     66  48  52 CALM      30.20S
HERMISTON      MOSUNNY   83  56  39 NW8       29.94F
PENDLETON      MOSUNNY   84  50  30 S7        29.99S
JOHN DAY       MOSUNNY   76  46  34 E5        30.14S
MEACHAM        MOSUNNY   73  58  59 CALM      30.13S
LA GRANDE      MOSUNNY   66  48  52 CALM      30.10S
BAKER CITY     PTSUNNY   63  32  31 N5        30.14R
BURNS          SUNNY     66  55  67 CALM      30.19R
ROME             N/A     76  47  35 SW3       30.14F
ONTARIO        MOSUNNY   78  51  38 CALM      30.09R
$$



USA.gov is the U.S. government's official web portal to all federal, state and local government web resources and services.